[[{"header":{"parameterUnit":"m.s-1","parameterCategory":1,"la1":30.2991,"la2":30.254,"lo1":-89.0895,"lo2":-89.0444,"dy":0.0017,"dx":0.0017,"nx":28,"ny":28,"refTime":"2024-06-10T21:00:00:Z","depth":0,"parameterNumber":2,"parameterNumberName":"U-component_of_WINDS"},"data":[0,0,0,0,0,0,0,0,0,0,0,0,0,0,0,0,0,0,0,0,0,0,0,0,0,0,0,0,0,0,0,0,0,0,0,0,0,0,0,0,0,0,0,0,0,0,0,0,0,0,0,0,0,0,0,0,0,0,-2.9134,-2.9134,0,-2.9161,-2.9161,-2.9161,-2.9066,-2.9063,-2.906,-2.9057,-2.9085,-2.9088,-2.9091,0,0,0,0,0,0,0,0,0,0,0,0,0,-2.8999,-2.9002,-2.9134,-2.9134,-2.9134,-2.9161,-2.9161,-2.9161,-2.9066,-2.9063,-2.9059,-2.9056,-2.9083,-2.9087,-2.9092,0,0,0,0,0,0,0,0,0,0,0,0,0,-2.9045,-2.9003,-2.9134,-2.909,-2.9086,-2.916,-2.9161,-2.9161,-2.9067,-2.9063,-2.9058,-2.9054,-2.9082,-2.9087,-2.9092,-2.9209,0,0,-2.9108,-2.911,0,0,0,0,0,0,0,0,-2.9042,-2.905,-2.9096,-2.9093,-2.9089,-2.9105,-2.9123,-2.9177,-2.9068,-2.9074,-2.9057,-2.9052,-2.9095,-2.9099,-2.9113,-2.9211,-2.9212,-2.9108,-2.9111,-2.9113,-2.9115,0,0,0,0,0,0,0,-2.9039,-2.9048,-2.9144,-2.9097,-2.9093,-2.9069,-2.9071,-2.9133,-2.9108,-2.9073,-2.9067,-2.9071,-2.9092,-2.9109,-2.9113,-2.9212,-2.9108,-2.9112,-2.9116,-2.9118,-2.9406,-2.9411,0,0,0,0,0,0,-2.9042,-2.9046,-2.9143,-2.9145,-2.9055,-2.9075,-2.9077,-2.9105,-2.9107,-2.9104,-2.9075,-2.9067,-2.9102,-2.9107,-2.9114,-2.9251,-2.9113,-2.9118,-2.9121,-2.9402,-2.9407,-2.9412,0,0,0,0,0,0,-2.9039,-2.9052,-2.9142,-2.9094,-2.9104,-2.9082,-2.9114,-2.9107,-2.9123,-2.9108,-2.9103,-2.9096,-2.9099,-2.9107,-2.9186,-2.9251,-2.912,-2.9125,-2.9396,-2.9403,-2.941,-2.9527,0,0,0,0,0,0,-2.9036,-2.9051,-2.9096,-2.9096,-2.9107,-2.9215,-2.9118,-2.9111,-2.9133,-2.9122,-2.9127,-2.9124,-2.9096,-2.9179,-2.9191,-2.9255,-2.9129,-2.939,-2.9399,-2.9408,-2.9517,-2.9537,-2.9554,0,0,0,0,0,-2.9032,-2.9128,-2.9099,-2.9111,-2.9162,-2.9219,-2.9225,-2.9191,-2.9138,-2.9183,-2.9173,-2.9124,-2.9241,-2.9188,-2.9201,-2.9268,-2.9386,-2.9397,-2.9407,-2.9509,-2.9533,-2.9553,0,0,0,0,0,0,-2.9136,-2.9127,-2.9095,-2.9194,-2.9208,-2.9203,-2.9258,-2.9218,-2.9248,-2.9237,-2.9193,-2.9195,-2.9283,-2.9282,-2.9223,-2.9381,-2.9305,-2.9318,-2.9378,-2.94,-2.9418,-2.9417,-2.9133,0,0,0,0,0,-2.9171,-2.9218,-2.9207,-2.9296,-2.9305,-2.928,-2.9304,-2.9277,-2.9289,-2.9295,-2.9291,-2.9305,-2.9345,-2.9373,-2.9409,-2.9516,-2.9516,-2.9568,-2.9587,-2.9602,-2.9614,-2.9671,-2.9694,-2.9446,-2.9446,-2.9446,0,0,-2.9243,-2.9244,-2.9276,-2.9317,-2.9325,-2.9375,-2.9286,-2.9343,-2.9379,-2.9303,-2.9378,-2.9376,-2.9389,-2.9483,-2.9524,-2.9486,-2.9682,-2.9615,-2.9627,-2.9631,-2.9684,-2.9707,-2.9728,-2.9454,-2.9452,-2.9451,0,0,-2.94,-2.9406,-2.948,-2.9489,-2.9502,-2.9485,-2.9503,-2.9504,-2.9499,-2.9574,-2.9518,-2.956,-2.9631,-2.9642,-2.9657,-2.9818,-2.9773,-2.983,-2.9927,-2.9983,-3.0002,-3.0019,-3.0077,-3.0098,-2.9843,-2.9843,-2.9843,0,-2.9488,-2.9561,-2.9523,-2.9583,-2.9603,-2.9536,-2.9611,-2.9622,-2.9646,-2.9661,-2.9617,-2.9703,-2.9707,-2.9803,-2.9842,-2.9857,-2.9876,-2.983,-3.0002,-3.0019,-3.0034,-3.0089,-3.0111,-2.985,-2.9849,-2.9848,-2.9848,0,-2.9669,-2.9721,-2.9779,-2.9804,-2.983,-2.9897,-2.9868,-2.9899,-2.9869,-2.9857,-2.9933,-2.9935,-2.9971,-2.9991,-2.9963,-3.0083,-3.0059,-3.001,-2.9932,-3.0066,-3.0116,-3.0136,-2.986,-2.9857,-2.9855,-2.9853,0,0,-2.9894,-2.9896,-2.9919,-2.9929,-2.9938,-2.9977,-3.004,-3.0075,-3.0102,-3.0121,-3.0173,-3.0233,-3.0188,-3.0205,-3.0177,-3.0226,-3.0353,-3.017,-3.017,-3.0205,-3.0486,-3.0523,-3.0548,-3.0323,-3.0327,-3.033,-3.0485,0,-3.0049,-3.0159,-3.0125,-3.0236,-3.0283,-3.022,-3.0275,-3.0287,-3.0277,-3.0314,-3.0303,-3.0347,-3.0283,-3.0293,-3.0338,-3.0328,-3.0409,-3.0316,-3.0372,-3.0374,-3.0371,-3.0574,-3.0614,-3.076,-3.0504,-3.0508,-3.051,0,-3.0244,-3.027,-3.0386,-3.0386,-3.0405,-3.0455,-3.0484,-3.0521,-3.0532,-3.0521,-3.0541,-3.0502,-3.0564,-3.0486,-3.0571,-3.0509,-3.0529,-3.0528,-3.0533,-3.0537,-3.0451,-3.0585,-3.0806,-3.0828,-3.054,-3.0538,-3.0536,0,-3.0397,-3.0461,-3.0538,-3.0549,-3.0552,-3.0589,-3.0591,-3.0598,-3.0621,-3.0646,-3.066,-3.0692,-3.071,-3.0735,-3.0706,-3.0652,-3.0795,-3.0715,-3.0788,-3.0789,-3.0822,-3.082,-3.105,-3.0835,-3.0834,-3.0834,-3.0833,0,-3.0574,-3.0647,-3.0607,-3.0655,-3.0735,-3.0695,-3.0775,-3.0771,-3.0777,-3.0823,-3.077,-3.0813,-3.0772,-3.0812,-3.0789,-3.0863,-3.0871,-3.0864,-3.0858,-3.0869,-3.0871,-3.0883,-3.0872,-3.084,-3.0838,-3.0837,-3.0836,0,-3.0759,-3.0735,-3.0815,-3.0811,-3.0811,-3.087,-3.0866,-3.091,-3.0895,-3.0953,-3.0965,-3.0942,-3.0986,-3.0959,-3.1004,-3.0989,-3.1085,-3.1064,-3.1082,-3.1077,-3.1151,-3.1145,-3.1398,-3.1429,-3.1193,-3.1195,-3.1197,0,-3.0874,-3.0928,-3.093,-3.0956,-3.0963,-3.1006,-3.1029,-3.0992,-3.1018,-3.1034,-3.1076,-3.1115,-3.1145,-3.1218,-3.1205,-3.1239,-3.1219,-3.1305,-3.1223,-3.1234,-3.122,-3.1218,-3.1223,-3.1322,-3.1324,-3.1327,-3.1329,0,-3.108,-3.1065,-3.11,-3.1131,-3.116,-3.1183,-3.1201,-3.1226,-3.1188,-3.122,-3.1264,-3.1287,-3.1333,-3.1372,-3.1401,-3.1403,-3.136,-3.1354,-3.1373,-3.1386,-3.1394,-3.1391,-3.1127,-3.1349,-3.1347,-3.1345,-3.1344,-3.1343,-3.1233,-3.1279,-3.1287,-3.1328,-3.1337,-3.1355,-3.1396,-3.1387,-3.1423,-3.1457,-3.1433,-3.1485,-3.1494,-3.1528,-3.1535,-3.1576,-3.1541,-3.1568,-3.1575,-3.1582,-3.1593,-3.1387,-3.158,-3.158,-3.1579,-3.1579,-3.1578,0,-3.1437,-3.1439,-3.1476,-3.1504,-3.1536,-3.1492,-3.151,-3.1539,-3.1586,-3.1598,-3.1628,-3.1679,-3.1717,-3.1707,-3.1741,-3.1775,-3.1756,-3.1786,-3.1783,-3.1784,-3.1622,-3.1602,-3.18,-3.18,-3.18,-3.18,-3.18,-3.18,-3.1547,-3.1621,-3.1608,-3.1687,-3.1688,-3.1739,-3.1753,-3.1769,-3.1778,-3.1838,-3.1869,-3.1862,-3.1865,-3.1899,-3.1932,-3.1928,-3.1943,-3.198,-3.1969,-3.1817,-3.1796,-3.1775,-3.1756,-3.1983,-3.1983,-3.2127,-3.2129,-3.213]},{"header":{"parameterUnit":"m.s-1","parameterCategory":1,"la1":30.2991,"la2":30.254,"lo1":-89.0895,"lo2":-89.0444,"dy":0.0017,"dx":0.0017,"nx":28,"ny":28,"refTime":"2024-06-10T21:00:00:Z","depth":0,"parameterNumber":3,"parameterNumberName":"V-component_of_WINDS"},"data":[0,0,0,0,0,0,0,0,0,0,0,0,0,0,0,0,0,0,0,0,0,0,0,0,0,0,0,0,0,0,0,0,0,0,0,0,0,0,0,0,0,0,0,0,0,0,0,0,0,0,0,0,0,0,0,0,0,0,-3.347,-3.3471,0,-3.3503,-3.3503,-3.3503,-3.347,-3.3469,-3.3468,-3.3467,-3.3496,-3.3498,-3.35,0,0,0,0,0,0,0,0,0,0,0,0,0,-3.3376,-3.3378,-3.347,-3.3471,-3.3471,-3.3503,-3.3503,-3.3503,-3.3471,-3.3469,-3.3467,-3.3466,-3.3496,-3.3498,-3.35,0,0,0,0,0,0,0,0,0,0,0,0,0,-3.3413,-3.3379,-3.347,-3.3459,-3.3458,-3.3502,-3.3503,-3.3504,-3.3471,-3.3469,-3.3467,-3.3465,-3.3495,-3.3498,-3.3501,-3.3557,0,0,-3.351,-3.3511,0,0,0,0,0,0,0,0,-3.3411,-3.3417,-3.346,-3.3459,-3.3459,-3.3481,-3.3481,-3.3522,-3.3471,-3.3466,-3.3467,-3.3464,-3.3492,-3.3496,-3.3506,-3.3559,-3.356,-3.351,-3.3512,-3.3513,-3.3514,0,0,0,0,0,0,0,-3.3409,-3.3415,-3.3483,-3.3461,-3.346,-3.345,-3.3454,-3.3488,-3.3489,-3.3466,-3.3464,-3.3468,-3.3492,-3.3503,-3.3506,-3.3561,-3.351,-3.3513,-3.3515,-3.3516,-3.366,-3.3662,0,0,0,0,0,0,-3.3408,-3.3413,-3.3482,-3.3484,-3.343,-3.3454,-3.3457,-3.3475,-3.3489,-3.3489,-3.347,-3.3467,-3.3499,-3.3503,-3.3507,-3.3573,-3.3513,-3.3516,-3.3518,-3.3658,-3.3661,-3.3663,0,0,0,0,0,0,-3.3406,-3.3415,-3.3481,-3.3448,-3.3456,-3.3457,-3.3478,-3.3477,-3.3488,-3.3492,-3.3491,-3.3481,-3.3497,-3.3503,-3.3545,-3.3574,-3.3517,-3.352,-3.3656,-3.3659,-3.3662,-3.3707,0,0,0,0,0,0,-3.3404,-3.3414,-3.3437,-3.3449,-3.3458,-3.3519,-3.348,-3.3479,-3.3494,-3.349,-3.3502,-3.3503,-3.3496,-3.3541,-3.3548,-3.3577,-3.3522,-3.3653,-3.3657,-3.3661,-3.3702,-3.3711,-3.3718,0,0,0,0,0,-3.34,-3.3447,-3.3438,-3.3446,-3.3486,-3.3521,-3.3526,-3.3519,-3.3496,-3.3518,-3.352,-3.3502,-3.357,-3.3545,-3.3553,-3.3583,-3.3651,-3.3656,-3.366,-3.3699,-3.3709,-3.3718,0,0,0,0,0,0,-3.3437,-3.3449,-3.3438,-3.3491,-3.3506,-3.3516,-3.3543,-3.353,-3.355,-3.3545,-3.3534,-3.3537,-3.3582,-3.3587,-3.356,-3.3638,-3.3607,-3.3613,-3.3633,-3.3643,-3.365,-3.3648,-3.3525,0,0,0,0,0,-3.3452,-3.3481,-3.3489,-3.3534,-3.3542,-3.3542,-3.3557,-3.355,-3.3564,-3.3569,-3.3574,-3.3588,-3.3612,-3.3628,-3.365,-3.3703,-3.3705,-3.3728,-3.3735,-3.3742,-3.3747,-3.3774,-3.3784,-3.3678,-3.3678,-3.3678,0,0,-3.3482,-3.3492,-3.351,-3.3542,-3.3552,-3.3581,-3.3547,-3.3579,-3.3599,-3.3574,-3.3614,-3.3618,-3.3632,-3.368,-3.3701,-3.3685,-3.3777,-3.3748,-3.3753,-3.3754,-3.378,-3.379,-3.3799,-3.3681,-3.3681,-3.368,0,0,-3.355,-3.3562,-3.36,-3.3611,-3.3628,-3.3627,-3.3636,-3.3648,-3.365,-3.3691,-3.3672,-3.3696,-3.3738,-3.3748,-3.3759,-3.3831,-3.3815,-3.3839,-3.3878,-3.3905,-3.3913,-3.392,-3.3945,-3.3954,-3.3844,-3.3844,-3.3844,0,-3.3585,-3.3629,-3.3621,-3.3655,-3.3669,-3.3648,-3.3686,-3.3697,-3.3719,-3.3728,-3.3711,-3.3763,-3.3771,-3.382,-3.3837,-3.3847,-3.3856,-3.3837,-3.3913,-3.392,-3.3927,-3.395,-3.3959,-3.3847,-3.3847,-3.3846,-3.3846,0,-3.367,-3.37,-3.3729,-3.3752,-3.3769,-3.3805,-3.3802,-3.382,-3.3811,-3.3812,-3.3852,-3.3862,-3.3885,-3.3896,-3.3888,-3.3944,-3.3933,-3.3915,-3.3882,-3.394,-3.3961,-3.397,-3.3851,-3.385,-3.3849,-3.3848,0,0,-3.3762,-3.3781,-3.3791,-3.3801,-3.3818,-3.384,-3.3874,-3.3898,-3.3913,-3.3929,-3.3956,-3.3992,-3.3975,-3.3987,-3.398,-3.4003,-3.4058,-3.3981,-3.3981,-3.3994,-3.4118,-3.4131,-3.4142,-3.4048,-3.4049,-3.4051,-3.4117,0,-3.383,-3.389,-3.3885,-3.3941,-3.3968,-3.3948,-3.3978,-3.399,-3.3992,-3.4014,-3.4015,-3.404,-3.4016,-3.4023,-3.4045,-3.4047,-3.4083,-3.4042,-3.4071,-3.4072,-3.4067,-3.4153,-3.4167,-3.4229,-3.4125,-3.4127,-3.4128,0,-3.3918,-3.3938,-3.3997,-3.4008,-3.4019,-3.4046,-3.4067,-3.4089,-3.4102,-3.4101,-3.4115,-3.4104,-3.4136,-3.4104,-3.4148,-3.4121,-3.4132,-3.4135,-3.4137,-3.4138,-3.4103,-3.4156,-3.4249,-3.4258,-3.4141,-3.414,-3.4139,0,-3.3977,-3.4019,-3.406,-3.4069,-3.4083,-3.4102,-3.4109,-3.4121,-3.4135,-3.4153,-3.4162,-3.4183,-3.4194,-3.421,-3.4204,-3.4182,-3.4249,-3.4217,-3.4247,-3.4248,-3.4261,-3.426,-3.4356,-3.4271,-3.4271,-3.4271,-3.4271,0,-3.4053,-3.409,-3.4086,-3.4111,-3.4151,-3.4144,-3.4183,-3.4187,-3.4198,-3.4222,-3.4206,-3.4229,-3.4221,-3.4243,-3.4238,-3.4274,-3.428,-3.4279,-3.4277,-3.428,-3.428,-3.4286,-3.4281,-3.4274,-3.4273,-3.4273,-3.4272,0,-3.4126,-3.4126,-3.4168,-3.4179,-3.4182,-3.4211,-3.422,-3.4242,-3.4243,-3.4273,-3.428,-3.428,-3.4305,-3.4301,-3.4329,-3.4325,-3.437,-3.4364,-3.4366,-3.4364,-3.4394,-3.4391,-3.4497,-3.451,-3.4418,-3.4419,-3.4419,0,-3.4174,-3.4202,-3.4215,-3.4231,-3.4239,-3.4265,-3.4279,-3.4273,-3.4288,-3.4305,-3.4326,-3.4349,-3.4368,-3.4408,-3.441,-3.4431,-3.4424,-3.4459,-3.4426,-3.4428,-3.4422,-3.442,-3.4422,-3.4465,-3.4466,-3.4467,-3.4468,0,-3.4258,-3.4256,-3.4279,-3.4301,-3.4319,-3.4336,-3.4351,-3.4364,-3.4359,-3.4377,-3.4403,-3.4418,-3.4446,-3.4469,-3.4488,-3.4494,-3.4479,-3.4479,-3.4486,-3.4489,-3.4488,-3.4487,-3.4382,-3.4476,-3.4475,-3.4474,-3.4474,-3.4474,-3.4319,-3.4342,-3.4355,-3.438,-3.4391,-3.4406,-3.4427,-3.443,-3.4452,-3.4475,-3.447,-3.4499,-3.451,-3.4535,-3.4542,-3.4564,-3.455,-3.4562,-3.4565,-3.4568,-3.4571,-3.4486,-3.4567,-3.4567,-3.4567,-3.4567,-3.4567,0,-3.4401,-3.4408,-3.4432,-3.4454,-3.4473,-3.446,-3.4475,-3.4492,-3.4518,-3.453,-3.4549,-3.4578,-3.46,-3.4604,-3.4625,-3.4641,-3.4635,-3.4647,-3.4645,-3.4646,-3.4582,-3.4573,-3.4651,-3.4651,-3.4651,-3.4651,-3.4651,-3.4651,-3.4446,-3.4484,-3.4484,-3.4527,-3.4534,-3.4563,-3.4573,-3.4585,-3.4595,-3.4629,-3.4647,-3.465,-3.4659,-3.468,-3.4699,-3.47,-3.4707,-3.4721,-3.4719,-3.4659,-3.4651,-3.4642,-3.4633,-3.4723,-3.4723,-3.4781,-3.4781,-3.4781]}]]